No particular awareness of the weather is required.    There are no Weather-warnings


Meteo18 Weather Cam more information Meteo18 Weather Cam


Thunder radar more information blitzortung!


Rain radar more information rain snow radar


Visit our other weather sites:

Template documentation
and downloads

And another site



Weather Underground History page Text

Daily Summary for October 25, 2017 Units:  English    Metric   Both
« Previous Day
Next Day »
Daily Weekly Monthly Yearly Custom
  High: Low: Average:
Temperature: TemperatureC °F 11.9 °F 15.4 °F
Dew Point: DewpointC °F 11.4 °F 13.5 °F
Humidity: Humidity % 67 % 89 %
Wind Speed: WindSpeedKMH mph 0.0 mph 1.4 mph
Wind Gust: WindSpeedGustKMH mph - -
Wind:- - South
Pressure: PressurehPa in 1024.3 in -
Precipitation: 0.3 in    
Historical Graphs
 
 
Tabular Data for October 25, 2017
Time Temperature Dew Point Pressure Wind Wind Speed Wind Gust Humidity Rainfall Rate (Hourly)
TemperatureC °F DewpointC °F PressurehPa in Calm     Humidity % HourlyPrecipMM in
00:02 14.1 °F 13.6 °F 1026.0 in Calm     97 % 0.0 in
00:12 14.1 °F 13.6 °F 1026.0 in Calm   1.6 mph 97 % 0.0 in
00:17 14.1 °F 13.6 °F 1026.3 in SSW 1.6 mph 4.8 mph 97 % 0.0 in
00:22 14.1 °F 13.6 °F 1026.3 in Calm   4.8 mph 97 % 0.0 in
00:27 14.0 °F 13.5 °F 1026.0 in SSE 3.2 mph 4.8 mph 97 % 0.0 in
00:32 13.9 °F 13.4 °F 1026.0 in SE 3.2 mph 6.4 mph 97 % 0.0 in
00:37 13.9 °F 13.4 °F 1025.6 in South 3.2 mph 6.4 mph 97 % 0.0 in
00:42 13.9 °F 13.4 °F 1025.6 in SSE 1.6 mph 6.4 mph 97 % 0.0 in
00:52 13.9 °F 13.4 °F 1026.0 in Calm   4.8 mph 97 % 0.0 in
00:57 13.9 °F 13.4 °F 1026.0 in South 1.6 mph 3.2 mph 97 % 0.0 in
01:02 13.9 °F 13.4 °F 1025.6 in Calm   3.2 mph 97 % 0.0 in
01:12 13.9 °F 13.4 °F 1025.6 in SW 1.6 mph 3.2 mph 97 % 0.0 in
01:22 13.9 °F 13.4 °F 1025.6 in SSE 1.6 mph 4.8 mph 97 % 0.0 in
01:27 13.8 °F 13.3 °F 1025.6 in South 3.2 mph 11.3 mph 97 % 0.0 in
01:42 13.8 °F 13.3 °F 1025.3 in SE 1.6 mph 9.7 mph 97 % 0.3 in
01:47 13.8 °F 13.3 °F 1025.3 in SE 6.4 mph 8.0 mph 97 % 0.3 in
01:52 13.8 °F 13.3 °F 1025.6 in South 3.2 mph 8.0 mph 97 % 0.3 in
01:57 13.8 °F 13.3 °F 1025.6 in SE 3.2 mph 9.7 mph 97 % 0.3 in
02:02 13.8 °F 13.3 °F 1025.6 in SW 6.4 mph 9.7 mph 97 % 0.3 in
02:07 13.8 °F 13.3 °F 1025.6 in SSW 4.8 mph 11.3 mph 97 % 0.3 in
02:12 13.8 °F 13.3 °F 1025.6 in SW 3.2 mph 11.3 mph 97 % 0.3 in
02:17 13.8 °F 13.3 °F 1025.6 in SSW 1.6 mph 11.3 mph 97 % 0.3 in
02:22 13.8 °F 13.3 °F 1025.6 in Calm   11.3 mph 97 % 0.3 in
02:32 13.7 °F 13.2 °F 1025.6 in SE 4.8 mph 6.4 mph 97 % 0.3 in
02:37 13.7 °F 13.2 °F 1025.6 in SSW 4.8 mph 9.7 mph 97 % 0.0 in
02:42 13.7 °F 13.2 °F 1025.6 in South 1.6 mph 9.7 mph 97 % 0.0 in
02:52 13.7 °F 13.2 °F 1025.3 in SE 1.6 mph 9.7 mph 97 % 0.0 in
02:57 13.7 °F 13.2 °F 1025.3 in SE 3.2 mph 8.0 mph 97 % 0.0 in
03:02 13.7 °F 13.2 °F 1025.3 in SE 4.8 mph 8.0 mph 97 % 0.0 in
03:07 13.6 °F 13.1 °F 1025.3 in SSE 1.6 mph 6.4 mph 97 % 0.0 in
03:12 13.6 °F 13.1 °F 1025.3 in South 4.8 mph 6.4 mph 97 % 0.0 in
03:17 13.6 °F 13.1 °F 1025.6 in SSW 1.6 mph 9.7 mph 97 % 0.0 in
03:27 13.6 °F 13.1 °F 1025.6 in SE 11.3 mph 11.3 mph 97 % 0.0 in
03:32 13.6 °F 13.1 °F 1025.6 in SE 3.2 mph 9.7 mph 97 % 0.0 in
03:37 13.5 °F 12.9 °F 1025.6 in ESE 3.2 mph 11.3 mph 96 % 0.0 in
03:42 13.4 °F 12.8 °F 1025.6 in SE 1.6 mph 11.3 mph 96 % 0.0 in
03:47 13.4 °F 12.8 °F 1025.3 in Calm   11.3 mph 96 % 0.0 in
03:52 13.4 °F 12.9 °F 1025.3 in SSW 1.6 mph 11.3 mph 97 % 0.0 in
04:02 13.4 °F 12.9 °F 1025.3 in SSE 1.6 mph 8.0 mph 97 % 0.0 in
04:07 13.4 °F 12.9 °F 1025.3 in SSE 3.2 mph 9.7 mph 97 % 0.0 in
04:12 13.4 °F 12.9 °F 1024.9 in ESE 1.6 mph 9.7 mph 97 % 0.0 in
04:17 13.4 °F 12.9 °F 1024.9 in ESE 3.2 mph 9.7 mph 97 % 0.0 in
04:22 13.4 °F 12.9 °F 1024.9 in ESE 4.8 mph 9.7 mph 97 % 0.0 in
04:32 13.4 °F 12.9 °F 1024.9 in SE 4.8 mph 9.7 mph 97 % 0.0 in
04:42 13.4 °F 12.9 °F 1024.9 in SSE 3.2 mph 9.7 mph 97 % 0.0 in
04:47 13.4 °F 12.9 °F 1024.9 in SE 1.6 mph 8.0 mph 97 % 0.0 in
04:52 13.4 °F 12.9 °F 1024.9 in SSE 1.6 mph 8.0 mph 97 % 0.0 in
04:57 13.4 °F 12.9 °F 1024.9 in Calm   6.4 mph 97 % 0.0 in
05:02 13.4 °F 12.9 °F 1024.9 in SE 1.6 mph 6.4 mph 97 % 0.0 in
05:12 13.4 °F 12.9 °F 1024.9 in SE 1.6 mph 9.7 mph 97 % 0.0 in
05:17 13.4 °F 12.9 °F 1024.9 in Calm   9.7 mph 97 % 0.0 in
05:22 13.4 °F 12.9 °F 1024.6 in Calm   9.7 mph 97 % 0.0 in
05:32 13.4 °F 12.9 °F 1024.6 in SE 6.4 mph 11.3 mph 97 % 0.0 in
05:42 13.3 °F 12.8 °F 1024.6 in SE 1.6 mph 8.0 mph 97 % 0.0 in
05:47 13.3 °F 12.8 °F 1024.6 in South 3.2 mph 9.7 mph 97 % 0.0 in
05:52 13.3 °F 12.8 °F 1024.6 in Calm   9.7 mph 97 % 0.0 in
06:02 13.3 °F 12.8 °F 1024.6 in SE 1.6 mph 9.7 mph 97 % 0.0 in
06:12 13.2 °F 12.7 °F 1024.6 in SE 1.6 mph 8.0 mph 97 % 0.0 in
06:17 13.2 °F 12.7 °F 1024.6 in Calm   4.8 mph 97 % 0.0 in
06:22 13.2 °F 12.7 °F 1024.6 in SSW 3.2 mph 4.8 mph 97 % 0.0 in
06:27 13.2 °F 12.7 °F 1024.6 in SSE 3.2 mph 6.4 mph 97 % 0.0 in
06:32 13.2 °F 12.7 °F 1024.6 in ESE 1.6 mph 6.4 mph 97 % 0.0 in
06:37 13.1 °F 12.6 °F 1024.6 in Calm   4.8 mph 97 % 0.0 in
06:42 13.1 °F 12.6 °F 1024.3 in Calm   4.8 mph 97 % 0.0 in
06:47 13.1 °F 12.6 °F 1024.3 in Calm   6.4 mph 97 % 0.0 in
06:52 13.1 °F 12.6 °F 1024.6 in Calm   6.4 mph 97 % 0.0 in
07:02 12.9 °F 12.3 °F 1024.3 in Calm   4.8 mph 96 % 0.0 in
07:07 12.8 °F 12.2 °F 1024.6 in Calm   1.6 mph 96 % 0.0 in
07:12 12.7 °F 12.1 °F 1024.6 in Calm   1.6 mph 96 % 0.0 in
07:17 12.6 °F 12.0 °F 1024.6 in Calm   3.2 mph 96 % 0.0 in
07:22 12.6 °F 12.1 °F 1024.6 in Calm   3.2 mph 97 % 0.0 in
07:32 12.5 °F 12.0 °F 1024.6 in Calm   1.6 mph 97 % 0.0 in
07:42 12.4 °F 11.9 °F 1024.6 in Calm   1.6 mph 97 % 0.0 in
07:52 12.3 °F 11.8 °F 1024.6 in Calm   1.6 mph 97 % 0.0 in
07:57 12.3 °F 11.8 °F 1024.6 in Calm     97 % 0.0 in
08:02 12.3 °F 11.8 °F 1024.9 in Calm     97 % 0.0 in
08:07 12.3 °F 11.8 °F 1024.6 in Calm     97 % 0.0 in
08:12 12.3 °F 11.8 °F 1024.9 in Calm     97 % 0.0 in
08:17 12.2 °F 11.7 °F 1024.9 in Calm     97 % 0.0 in
08:22 12.1 °F 11.6 °F 1024.9 in Calm     97 % 0.0 in
08:32 11.9 °F 11.4 °F 1024.9 in Calm     97 % 0.0 in
08:42 11.9 °F 11.4 °F 1024.9 in Calm     97 % 0.0 in
08:47 11.9 °F 11.4 °F 1024.9 in Calm     97 % 0.0 in
08:52 11.9 °F 11.4 °F 1024.9 in Calm     97 % 0.0 in
08:57 11.9 °F 11.4 °F 1024.9 in Calm     97 % 0.0 in
09:02 12.0 °F 11.5 °F 1024.9 in Calm     97 % 0.0 in
09:12 12.1 °F 11.6 °F 1025.3 in Calm     97 % 0.0 in
09:17 12.2 °F 11.7 °F 1024.9 in Calm     97 % 0.0 in
09:22 12.4 °F 11.9 °F 1025.3 in Calm     97 % 0.0 in
09:32 12.7 °F 12.2 °F 1024.9 in Calm     97 % 0.0 in
09:42 12.9 °F 12.4 °F 1025.3 in Calm   1.6 mph 97 % 0.0 in
09:52 13.3 °F 12.8 °F 1024.9 in Calm   1.6 mph 97 % 0.0 in
10:02 13.4 °F 12.6 °F 1024.9 in SSE 3.2 mph 3.2 mph 95 % 0.0 in
10:12 13.4 °F 12.6 °F 1024.9 in Calm   3.2 mph 95 % 0.0 in
10:17 13.6 °F 12.8 °F 1024.9 in Calm   8.0 mph 95 % 0.0 in
10:22 13.8 °F 13.0 °F 1024.9 in Calm   8.0 mph 95 % 0.0 in
10:32 13.7 °F 12.6 °F 1025.3 in South 1.6 mph 8.0 mph 93 % 0.0 in
10:42 13.8 °F 12.7 °F 1025.3 in Calm   6.4 mph 93 % 0.0 in
10:47 14.0 °F 12.9 °F 1025.3 in South 3.2 mph 6.4 mph 93 % 0.0 in
10:52 14.2 °F 12.9 °F 1025.3 in SSW 1.6 mph 6.4 mph 92 % 0.0 in
11:02 14.6 °F 13.3 °F 1025.3 in SSE 4.8 mph 6.4 mph 92 % 0.0 in
11:07 14.6 °F 13.0 °F 1025.3 in SW 3.2 mph 8.0 mph 90 % 0.0 in
11:12 14.7 °F 13.1 °F 1025.3 in SW 4.8 mph 8.0 mph 90 % 0.0 in
11:17 14.8 °F 13.2 °F 1025.6 in Calm   9.7 mph 90 % 0.0 in
11:22 15.1 °F 13.5 °F 1025.6 in SE 1.6 mph 9.7 mph 90 % 0.0 in
11:32 15.4 °F 13.4 °F 1025.6 in SSW 4.8 mph 8.0 mph 88 % 0.0 in
11:52 16.2 °F 13.9 °F 1025.6 in SSE 1.6 mph 4.8 mph 86 % 0.0 in
11:57 16.3 °F 13.6 °F 1025.6 in SE 3.2 mph 6.4 mph 84 % 0.0 in
12:02 16.4 °F 14.1 °F 1025.6 in South 4.8 mph 6.4 mph 86 % 0.0 in
12:07 16.5 °F 13.8 °F 1025.3 in ENE 1.6 mph 6.4 mph 84 % 0.0 in
12:12 16.8 °F 14.1 °F 1025.3 in SSW 6.4 mph 6.4 mph 84 % 0.0 in
12:17 16.7 °F 13.8 °F 1025.3 in SSW 3.2 mph 6.4 mph 83 % 0.0 in
12:22 16.9 °F 14.2 °F 1025.3 in SSW 3.2 mph 6.4 mph 84 % 0.0 in
12:32 17.0 °F 14.1 °F 1025.6 in East 1.6 mph 6.4 mph 83 % 0.0 in
12:42 17.2 °F 14.3 °F 1025.6 in Calm   9.7 mph 83 % 0.0 in
12:47 17.2 °F 14.1 °F 1025.6 in SSE 1.6 mph 8.0 mph 82 % 0.0 in
12:52 17.3 °F 14.4 °F 1025.6 in Calm   8.0 mph 83 % 0.0 in
13:02 17.2 °F 13.9 °F 1025.6 in Calm   6.4 mph 81 % 0.0 in
13:12 17.4 °F 14.1 °F 1025.6 in SSW 3.2 mph 6.4 mph 81 % 0.0 in
13:17 17.5 °F 14.2 °F 1025.6 in SSW 3.2 mph 6.4 mph 81 % 0.0 in
13:22 17.6 °F 14.3 °F 1025.6 in SSW 1.6 mph 6.4 mph 81 % 0.0 in
13:32 18.1 °F 14.6 °F 1025.3 in Calm   6.4 mph 80 % 0.0 in
13:42 18.4 °F 14.7 °F 1025.3 in SW 4.8 mph 4.8 mph 79 % 0.0 in
13:52 18.5 °F 14.6 °F 1025.3 in Calm   6.4 mph 78 % 0.0 in
14:02 18.8 °F 14.9 °F 1025.3 in Calm   6.4 mph 78 % 0.0 in
14:12 18.9 °F 15.0 °F 1024.9 in SW 3.2 mph 6.4 mph 78 % 0.0 in
14:17 18.9 °F 14.8 °F 1024.9 in SSE 3.2 mph 9.7 mph 77 % 0.0 in
14:22 19.3 °F 15.4 °F 1024.9 in SW 3.2 mph 9.7 mph 78 % 0.0 in
14:32 19.4 °F 15.1 °F 1024.9 in SSW 3.2 mph 9.7 mph 76 % 0.0 in
14:42 19.5 °F 15.2 °F 1024.9 in SSW 3.2 mph 8.0 mph 76 % 0.0 in
14:52 19.6 °F 14.8 °F 1024.9 in South 4.8 mph 8.0 mph 74 % 0.0 in
15:02 19.8 °F 15.2 °F 1024.6 in South 3.2 mph 9.7 mph 75 % 0.0 in
15:07 20.1 °F 15.3 °F 1024.6 in WSW 4.8 mph 9.7 mph 74 % 0.0 in
15:12 20.2 °F 15.6 °F 1024.6 in SSW 3.2 mph 9.7 mph 75 % 0.0 in
15:22 20.2 °F 15.2 °F 1024.6 in SSW 1.6 mph 8.0 mph 73 % 0.0 in
15:32 20.7 °F 15.3 °F 1024.9 in SW 4.8 mph 8.0 mph 71 % 0.0 in
15:42 20.5 °F 15.5 °F 1024.9 in Calm   6.4 mph 73 % 0.0 in
15:47 20.9 °F 15.7 °F 1024.9 in Calm   6.4 mph 72 % 0.0 in
15:52 20.9 °F 15.4 °F 1024.9 in SSW 3.2 mph 6.4 mph 71 % 0.0 in
15:57 20.8 °F 15.3 °F 1024.9 in Calm   8.0 mph 71 % 0.0 in
16:02 21.1 °F 15.4 °F 1024.6 in Calm   8.0 mph 70 % 0.0 in
16:12 21.4 °F 15.7 °F 1024.9 in SW 1.6 mph 6.4 mph 70 % 0.0 in
16:17 21.4 °F 15.5 °F 1024.6 in WSW 1.6 mph 6.4 mph 69 % 0.0 in
16:22 21.4 °F 15.5 °F 1024.6 in Calm   6.4 mph 69 % 0.0 in
16:32 21.6 °F 15.4 °F 1024.9 in Calm   6.4 mph 68 % 0.0 in
16:37 21.5 °F 15.3 °F 1024.9 in WSW 1.6 mph 4.8 mph 68 % 0.0 in
16:42 21.5 °F 15.6 °F 1024.9 in Calm   4.8 mph 69 % 0.0 in
16:47 21.6 °F 15.4 °F 1024.9 in Calm   4.8 mph 68 % 0.0 in
16:52 21.6 °F 15.7 °F 1024.6 in Calm   4.8 mph 69 % 0.0 in
16:57 21.9 °F 15.7 °F 1024.6 in Calm   3.2 mph 68 % 0.0 in
17:02 21.9 °F 15.7 °F 1024.9 in Calm   3.2 mph 68 % 0.0 in
17:12 22.0 °F 15.6 °F 1024.6 in Calm   3.2 mph 67 % 0.0 in
17:17 21.9 °F 15.7 °F 1024.6 in Calm   4.8 mph 68 % 0.0 in
17:27 22.1 °F 15.9 °F 1024.9 in Calm   4.8 mph 68 % 0.0 in
17:32 22.2 °F 15.8 °F 1024.9 in Calm   4.8 mph 67 % 0.0 in
17:42 21.7 °F 15.8 °F 1024.9 in Calm   3.2 mph 69 % 0.0 in
17:47 21.7 °F 15.8 °F 1024.9 in Calm   3.2 mph 69 % 0.0 in
17:52 21.7 °F 15.8 °F 1024.9 in Calm   3.2 mph 69 % 0.0 in
18:12 22.0 °F 15.6 °F 1024.9 in Calm   1.6 mph 67 % 0.0 in
18:17 21.8 °F 15.6 °F 1024.9 in Calm   1.6 mph 68 % 0.0 in
18:22 21.3 °F 15.6 °F 1024.9 in East 1.6 mph 1.6 mph 70 % 0.0 in
18:27 20.7 °F 15.5 °F 1024.9 in East 1.6 mph 1.6 mph 72 % 0.0 in
18:32 20.2 °F 15.4 °F 1024.9 in Calm   3.2 mph 74 % 0.0 in
18:37 19.8 °F 15.2 °F 1024.9 in Calm   3.2 mph 75 % 0.0 in
18:42 19.6 °F 15.5 °F 1024.9 in Calm   1.6 mph 77 % 0.0 in
18:57 18.2 °F 15.1 °F 1024.9 in Calm     82 % 0.0 in
19:02 18.0 °F 14.9 °F 1024.9 in Calm     82 % 0.0 in
19:12 17.6 °F 14.9 °F 1024.9 in Calm     84 % 0.0 in
19:17 17.3 °F 14.8 °F 1024.9 in Calm     85 % 0.0 in
19:22 17.1 °F 14.7 °F 1024.9 in Calm     86 % 0.0 in
19:27 16.9 °F 14.5 °F 1025.3 in East 1.6 mph   86 % 0.0 in
19:32 16.8 °F 14.6 °F 1025.3 in NNE 1.6 mph   87 % 0.0 in
19:37 16.8 °F 14.6 °F 1025.3 in Calm   3.2 mph 87 % 0.0 in
19:42 16.8 °F 14.6 °F 1025.3 in Calm   3.2 mph 87 % 0.0 in
19:47 16.6 °F 14.4 °F 1025.3 in NNW 1.6 mph 1.6 mph 87 % 0.0 in
19:52 16.3 °F 14.5 °F 1025.3 in Calm   1.6 mph 89 % 0.0 in
19:57 16.0 °F 14.2 °F 1025.3 in NW 1.6 mph 1.6 mph 89 % 0.0 in
20:02 15.8 °F 14.2 °F 1025.3 in NW 1.6 mph 1.6 mph 90 % 0.0 in
20:12 15.6 °F 14.1 °F 1025.3 in Calm   1.6 mph 91 % 0.0 in
20:17 15.3 °F 13.8 °F 1025.3 in NW 1.6 mph 1.6 mph 91 % 0.0 in
20:22 15.2 °F 13.9 °F 1024.9 in Calm   1.6 mph 92 % 0.0 in
20:32 15.3 °F 14.2 °F 1025.3 in Calm   1.6 mph 93 % 0.0 in
20:42 14.8 °F 13.7 °F 1025.3 in NW 1.6 mph 1.6 mph 93 % 0.0 in
20:47 14.9 °F 13.9 °F 1025.3 in North 1.6 mph 1.6 mph 94 % 0.0 in
20:52 15.0 °F 14.0 °F 1025.3 in Calm   1.6 mph 94 % 0.0 in
20:57 15.1 °F 14.1 °F 1025.3 in Calm   1.6 mph 94 % 0.0 in
21:02 14.9 °F 13.8 °F 1025.3 in Calm   1.6 mph 93 % 0.0 in
21:12 14.7 °F 13.7 °F 1025.3 in Calm   1.6 mph 94 % 0.0 in
21:17 14.6 °F 13.6 °F 1025.3 in Calm   1.6 mph 94 % 0.0 in
21:22 14.6 °F 13.6 °F 1025.3 in Calm   1.6 mph 94 % 0.0 in
21:27 14.5 °F 13.5 °F 1025.3 in Calm   1.6 mph 94 % 0.0 in
21:32 14.5 °F 13.5 °F 1025.3 in Calm   1.6 mph 94 % 0.0 in
21:42 14.4 °F 13.4 °F 1025.3 in North 3.2 mph 3.2 mph 94 % 0.0 in
21:52 14.3 °F 13.3 °F 1025.3 in Calm   3.2 mph 94 % 0.0 in
21:57 14.0 °F 13.0 °F 1025.3 in Calm   3.2 mph 94 % 0.0 in
22:02 14.0 °F 13.2 °F 1025.3 in Calm   3.2 mph 95 % 0.0 in
22:12 14.2 °F 13.4 °F 1025.6 in Calm   3.2 mph 95 % 0.0 in
22:17 14.3 °F 13.5 °F 1025.6 in Calm   3.2 mph 95 % 0.0 in
22:22 14.1 °F 13.1 °F 1025.6 in Calm   3.2 mph 94 % 0.0 in
22:27 14.0 °F 13.2 °F 1025.6 in Calm     95 % 0.0 in
22:32 13.9 °F 12.9 °F 1025.6 in Calm     94 % 0.0 in
22:37 13.6 °F 12.7 °F 1025.6 in Calm     94 % 0.0 in
22:44 13.6 °F 12.8 °F 1025.6 in Calm     95 % 0.0 in
22:52 13.6 °F 12.8 °F 1026.0 in Calm     95 % 0.0 in
23:02 13.4 °F 12.6 °F 1026.0 in Calm     95 % 0.0 in
23:07 13.3 °F 12.5 °F 1026.0 in Calm   1.6 mph 95 % 0.0 in
23:12 13.2 °F 12.4 °F 1026.0 in NNE 1.6 mph 1.6 mph 95 % 0.0 in
23:17 13.1 °F 12.5 °F 1026.0 in NNE 3.2 mph 3.2 mph 96 % 0.0 in
23:22 13.3 °F 12.7 °F 1026.0 in North 1.6 mph 3.2 mph 96 % 0.0 in
23:32 13.3 °F 12.7 °F 1026.0 in Calm   3.2 mph 96 % 0.0 in
23:42 12.9 °F 12.1 °F 1026.0 in WNW 1.6 mph 3.2 mph 95 % 0.0 in
23:52 12.8 °F 12.2 °F 1026.0 in Calm   3.2 mph 96 % 0.0 in
23:57 13.0 °F 12.4 °F 1026.0 in Calm   3.2 mph 96 % 0.0 in
Meteo18
Compliments of Weather Underground - 4 mb

Script developed by  Jim McMurry - jmcmurry@mwt.net Adapted for the template by  Wim van der Kuil - Leuven-Template.eu

You find our weather info also at:

European Weather Network

Weather Underground

Equipment we use:

Weather-station
Davis Vue

Weather-program
Meteobridge

Weather-server
Raspberry PI 2 B+

Provider
1 and 1

Davis Vue

Meteobridge

Raspberry PI 2 B+

1 and 1